CDT,Max TemperatureF,Mean TemperatureF,Min TemperatureF,Max Dew PointF,MeanDew PointF,Min DewpointF,Max Humidity, Mean Humidity, Min Humidity, Max Sea Level PressureIn, Mean Sea Level PressureIn, Min Sea Level PressureIn, Max VisibilityMiles, Mean VisibilityMiles, Min VisibilityMiles, Max Wind SpeedMPH, Mean Wind SpeedMPH, Max Gust SpeedMPH,PrecipitationIn, CloudCover, Events, WindDirDegrees
2011-10-1,77,56,35,52,42,36,100,69,29,30.29,30.23,30.18,10,10,10,9,1,17,0.00,0,,97
2011-10-2,78,58,39,46,43,37,100,69,31,30.30,30.24,30.17,10,10,10,7,1,,0.00,0,,158
2011-10-3,80,60,41,50,45,41,100,65,30,30.27,30.22,30.18,10,10,10,8,1,,0.00,0,,163
2011-10-4,82,63,44,50,45,43,100,58,28,30.29,30.21,30.16,10,10,7,8,1,,0.00,0,,134
2011-10-5,80,63,46,50,45,41,81,55,30,30.21,30.15,30.07,10,10,10,12,2,17,0.00,0,,133
2011-10-6,82,70,59,54,49,45,72,50,34,30.13,30.07,30.00,10,10,10,17,8,26,0.00,0,,136
2011-10-7,82,72,62,61,54,52,73,54,37,30.15,30.09,30.03,10,10,10,20,13,30,0.00,0,,137
2011-10-8,82,72,62,61,57,54,88,60,39,30.18,30.11,30.05,10,10,10,16,10,26,0.00,0,,136
2011-10-9,80,71,62,61,56,54,77,60,44,30.14,30.09,30.02,10,10,10,20,12,25,0.00,0,,128
2011-10-10,69,64,59,63,60,54,100,90,56,30.10,30.05,30.00,10,9,3,8,4,17,0.13,6,,152
2011-10-11,77,66,55,66,61,55,100,89,61,30.01,29.92,29.84,10,8,0,10,1,,0.15,2,Fog,177
2011-10-12,78,68,59,64,60,54,100,82,47,29.86,29.79,29.71,10,9,3,13,3,20,0.17,2,,228
2011-10-13,73,60,46,52,48,43,100,64,35,29.95,29.89,29.82,10,10,10,17,7,26,0.00,0,,312
2011-10-14,78,58,39,54,45,39,100,70,32,30.02,29.97,29.92,10,10,10,5,1,,0.00,0,,357
2011-10-15,80,63,46,50,43,37,71,51,30,30.15,30.07,30.01,10,10,7,10,2,,0.00,0,,137
2011-10-16,87,68,50,55,50,45,82,59,33,30.03,29.99,29.91,10,10,10,16,4,24,0.00,0,,216
2011-10-17,86,68,50,61,55,43,100,69,37,29.96,29.82,29.67,10,10,5,20,4,26,0.02,0,,172
2011-10-18,60,51,42,45,39,32,100,69,36,30.02,29.97,29.84,10,10,5,22,13,33,0.03,3,,342
2011-10-19,53,42,32,32,29,23,100,66,33,30.05,30.02,29.99,10,10,10,23,8,31,0.00,0,,322
2011-10-20,59,40,21,32,29,21,100,69,36,30.15,30.09,30.05,10,10,10,14,2,24,0.00,0,,312
2011-10-21,75,52,28,41,36,28,100,69,29,30.22,30.15,30.11,10,10,10,6,1,,0.00,0,,153
2011-10-22,78,58,37,57,47,36,100,71,41,30.14,30.07,29.93,10,10,2,13,2,22,0.11,1,,109
2011-10-23,71,58,44,61,52,45,100,86,57,30.10,30.04,29.92,10,8,0,12,3,17,0.00,2,Fog,270
2011-10-24,78,60,42,63,52,43,100,80,42,30.21,30.15,30.11,10,7,0,9,2,,0.00,0,Fog,181
2011-10-25,80,66,51,61,56,52,100,72,47,30.13,30.01,29.88,10,10,10,21,8,32,0.00,0,,171
2011-10-26,68,58,48,63,55,45,100,87,68,29.99,29.92,29.86,10,10,7,13,3,18,0.03,4,,354
2011-10-27,48,45,42,46,44,43,100,95,87,30.14,30.07,29.99,10,8,2,14,6,20,0.63,6,,22
2011-10-28,57,45,33,52,38,32,100,80,38,30.27,30.22,30.15,10,6,0,15,2,18,0.01,4,Fog,327
2011-10-29,62,45,28,46,35,28,100,74,34,30.27,30.19,30.07,10,8,2,14,2,17,0.00,0,,203
2011-10-30,64,50,37,43,38,34,93,67,39,30.18,30.12,30.09,10,10,2,17,3,24,0.00,1,,224
2011-10-31,69,50,30,43,39,30,100,70,33,30.21,30.15,30.09,10,10,10,10,2,17,0.00,0,,205